This is the latest recevied weather packets stored in our database for station/object OK1FET-15. If no packets are shown the sender has not sent any weather packets the latest 10 day(s).
| Time | Temp. | Humidity | Pressure | Rain* | Wind** | Luminosity | Snow |
|---|---|---|---|---|---|---|---|
| 1787580156 | 31.11° C | 30% | 1020.7 hPa | - | - | - | - |
| 1787579847 | 31.11° C | 29% | 1020.8 hPa | - | - | - | - |
| 1787579538 | 31.11° C | 29% | 1020.8 hPa | - | - | - | - |
| 1787579229 | 31.11° C | 28% | 1020.8 hPa | - | - | - | - |
| 1787578920 | 31.11° C | 29% | 1020.9 hPa | - | - | - | - |
| 1787578611 | 30.56° C | 29% | 1020.9 hPa | - | - | - | - |
| 1787578303 | 30.56° C | 29% | 1020.9 hPa | - | - | - | - |
| 1787577994 | 30.56° C | 28% | 1021 hPa | - | - | - | - |
| 1787577685 | 30.56° C | 27% | 1021 hPa | - | - | - | - |
| 1787577376 | 31.11° C | 29% | 1021.1 hPa | - | - | - | - |
| 1787577067 | 31.11° C | 29% | 1021.2 hPa | - | - | - | - |
| 1787576758 | 30.56° C | 29% | 1021.2 hPa | - | - | - | - |
| 1787576450 | 30.56° C | 30% | 1021.3 hPa | - | - | - | - |
| 1787576141 | 30.56° C | 31% | 1021.4 hPa | - | - | - | - |
| 1787575832 | 31.11° C | 32% | 1021.5 hPa | - | - | - | - |
| 1787575523 | 31.11° C | 31% | 1021.5 hPa | - | - | - | - |
| 1787575214 | 31.67° C | 31% | 1021.5 hPa | - | - | - | - |
| 1787574906 | 31.11° C | 31% | 1021.5 hPa | - | - | - | - |
| 1787574597 | 31.11° C | 27% | 1021.4 hPa | - | - | - | - |
| 1787574288 | 31.67° C | 32% | 1021.5 hPa | - | - | - | - |
| 1787573979 | 31.11° C | 30% | 1021.6 hPa | - | - | - | - |
| 1787573670 | 30.56° C | 31% | 1021.7 hPa | - | - | - | - |
| 1787573362 | 31.11° C | 31% | 1021.6 hPa | - | - | - | - |
| 1787573053 | 30.56° C | 32% | 1021.7 hPa | - | - | - | - |
| 1787572744 | 30° C | 29% | 1021.8 hPa | - | - | - | - |
* Rain since midnight (hover to see other rain measurements)
** Current wind speed in m/s (hover to see current wind gust speed)